ALOS (DAICHI)

Last updated on Thu Mar 05 2026 00:02:21 GMT+0000 (Coordinated Universal Time)

1 28931U 06002A 26063.46521525 .00002196 00000+0 37616-3 0 9991 2 28931 98.1209 19.4472 0001116 51.1847 308.9458 14.69791465 72712
UTC large
Height (km)
Speed (km/s)
/
Latitude / Longitude
Inclination (degrees)
Orbital Period (minutes)
Azimuth
Elevation
Range (km)
Doppler Factor

Next 0 passes for location: London (51.5072 / 0.1276)

Sorry there are no passes over London.